Regional Weather Roundup
Issued by NWS

Home | Current Version | Previous Version | Graphics & Text | Print | Product List | Glossary Off
Versions: 1 2 3 4 5 6 7 8 9 10 11 12 13 14 15 16 17 18 19 20 21 22 23 24 25 26 27 28 29 30 31 32 33 34 35 36 37 38 39 40 41 42 43 44 45 46 47 48 49 50

000
ASUS43 KMKX 061021
RWRWI

WISCONSIN REGIONAL WEATHER ROUNDUP
NATIONAL WEATHER SERVICE MILWAUKEE/SULLIVAN WI
400 AM CST FRI MAR 06 2015

NOTE: "FAIR" INDICATES FEW OR NO CLOUDS BELOW 12,000 FEET WITH NO
SIGNIFICANT WEATHER AND/OR OBSTRUCTIONS TO VISIBILITY.

WIZ001-002-006>008-014>016-023>028-061100-
NORTHWEST WISCONSIN

CITY           SKY/WX    TMP DP  RH WIND       PRES   REMARKS
SUPERIOR ARPT  CLOUDY     9   1  70 SW16      30.06F WCI  -8
ASHLAND        CLEAR      8  -1  66 SW20G30   30.07F WCI -11
HAYWARD        CLOUDY     7  -2  66 S10       30.09F WCI  -8
SIREN          PTCLDY    12   2  62 S13       30.09F WCI  -3
CUMBERLAND     CLOUDY     5   0  78 S8        30.11F WCI  -8
RICE LAKE      CLOUDY     5  -1  76 SE8       30.16F WCI  -8
CHETEK         CLOUDY     1  -4  80 E6        30.16F WCI -10
LADYSMITH      MOCLDY     1  -4  81 SE5       30.18F WCI  -9
EAU CLAIRE     CLOUDY     4  -3  73 S9        30.19F WCI -10
MENOMONIE      CLOUDY     7   0  73 SE6       30.19F WCI  -4
NEW RICHMOND   CLOUDY    11   1  64 S9        30.14F WCI  -1
OSCEOLA        PTCLDY    11   2  65 S8        30.16F WCI   0
$$

WIZ003>005-009-010-017-018-061100-
NORTH CENTRAL WISCONSIN

CITY           SKY/WX    TMP DP  RH WIND       PRES   REMARKS
MANITOWISH WTR CLEAR     -1  -5  81 S7        30.09F WCI -14
ARBOR VITAE    CLEAR     -2  -8  78 S7        30.11F WCI -16
WOODRUFF       CLEAR     -2  -8  78 S7        30.11F WCI -16
RHINELANDER    CLEAR     -1  -6  79 SW12      30.14F WCI -18
EAGLE RIVER    CLEAR     -1  -8  74 SW6       30.11F WCI -13
LAND O LAKES   CLEAR     -3  -8  80 S5        30.10F WCI -14
PHILLIPS       CLEAR     -2  -6  83 S7        30.12F WCI -16
TOMAHAWK       PTCLDY    -4  -8  82 CALM      30.16F
MEDFORD        PTCLDY     0  -5  78 S8        30.17F WCI -14
MERRILL        PTCLDY    -9 -13  80 CALM      30.20F
$$

WIZ029-030-035-036-043>047-061100-
CENTRAL WISCONSIN

CITY           SKY/WX    TMP DP  RH WIND       PRES   REMARKS
WAUSAU         MOCLDY    -2  -7  79 SE5       30.22F WCI -12
MOSINEE        MOCLDY    -2  -6  84 S8        30.24F WCI -17
MARSHFIELD     MOCLDY    -3  -8  79 S3        30.22F
STEVENS POINT  MOCLDY    -4  -8  79 S3        30.27F
WAUPACA        PTCLDY     0  -7  72 S5        30.31F WCI -10
WAUTOMA        MOCLDY    -9 -13  82 CALM      30.33F
WISC RAPIDS    MOCLDY    -4 -11  72 S5        30.28F WCI -15
CAMP DOUGLAS   PTCLDY     4  -3  74 S10       30.28F WCI -11
$$

WIZ011>013-019>022-031-037>040-048>050-061100-
NORTHEAST WISCONSIN

CITY           SKY/WX    TMP DP  RH WIND       PRES   REMARKS
ANTIGO         PTCLDY    -3  -8  81 SW10      30.19F WCI -20
SHAWANO        PTCLDY     2  -6  69 CALM      30.30F
OCONTO         PTCLDY     1  -7  69 SW6       30.31F WCI -10
STURGEON BAY   PTCLDY     5  -8  56 SW10      30.31F WCI -10
GREEN BAY      PTCLDY     1  -6  72 SW6       30.33F WCI -10
MANITOWOC      PTCLDY     2  -5  72 SW7       30.35F WCI -11
APPLETON       PTCLDY     1  -8  66 S8        30.31F WCI -12
CLINTONVILLE   PTCLDY     1  -6  71 S7        30.29F WCI -11
OSHKOSH        PTCLDY     2  -6  69 S10       30.33F WCI -14
$$

WIZ032>034-041-042-053>061-061100-
SOUTHWEST WISCONSIN

CITY           SKY/WX    TMP DP  RH WIND       PRES   REMARKS
LA CROSSE      CLEAR      4  -4  69 S10       30.30F WCI -11
SPARTA         CLEAR      2  -4  73 S3        30.30F
VIROQUA        CLEAR      1  -4  77 S9        30.26F WCI -14
BOSCOBEL       CLEAR    -10 -16  74 CALM      30.37F
PRAIRIE DU CHI PTCLDY    -3  -9  77 CALM      30.36F
PLATTEVILLE    PTCLDY     1  -6  75 SE10      30.35F WCI -16
$$

WIZ056-057-062-063-064-067-068-061100-
SOUTH CENTRAL WISCONSIN

CITY           SKY/WX    TMP DP  RH WIND       PRES   REMARKS
REEDSBURG      PTCLDY     2  -5  73 S5        30.32F WCI  -8
BARABOO/DELLS  PTCLDY     1  -6  71 CALM      30.31F
LONE ROCK      PTCLDY    -3 -10  72 NE3       30.37F
MINERAL POINT  CLEAR      0  -6  78 S6        30.33F WCI -12
MADISON        PTCLDY     1  -7  68 S10       30.36F WCI -15
MIDDLETON      PTCLDY     4  -5  63 SW10      30.36F WCI -11
WATERTOWN      PTCLDY    -3  -8  79 CALM      30.38F
MONROE         PTCLDY     0  -4  85 S13       30.36F WCI -18
JANESVILLE     PTCLDY     1  -6  71 S3        30.40F
$$

WIZ051-052-058>065-066-070>072-061100-
SOUTHEAST WISCONSIN

CITY           SKY/WX    TMP DP  RH WIND       PRES   REMARKS
MILWAUKEE      MOCLDY     1  -8  66 SW7       30.41F WCI -12
WAUKESHA       MOCLDY    -2  -8  78 S3        30.40S
MILWAUKEE/TIMM PTCLDY     1  -8  66 SW7       30.41F WCI -11
RACINE         PTCLDY    -1  -9  68 SW7       30.45S WCI -14
BURLINGTON     MOCLDY   -15 -19  80 CALM      30.41F
KENOSHA        MOCLDY    -1  -7  75 SW5       30.43F WCI -11
FOND DU LAC    PTCLDY     4  -6  63 SW10      30.35F WCI -11
SHEBOYGAN      PTCLDY    -1  -8  72 SW10      30.36F WCI -17
WEST BEND      MOCLDY     3  -6  66 SW7       30.36F WCI  -9
JUNEAU         PTCLDY     0  -6  74 S8        30.37F WCI -14
$$

LSZ147-162-061100-
LAKE SUPERIOR

STATION/POSITION TIME  TEMP    WIND        PRES    WAVE
                       AIR SEA DIR/SP/G            HT/PER
                 (UTC) (F)     (DEG/KT/KT) (MB)    (FT/S)
DEVILS ISLAND    1000    8     180/  5/  6 1019.3F
PORT WING        0940   10     190/  7/ 11 1018.3F
SAXON HARBOR     0920   10     180/  9/ 18 1019.3F
$$

LMZ867-665-643>646-061100-
LAKE MICHIGAN

STATION/POSITION TIME  TEMP    WIND        PRES    WAVE
                       AIR SEA DIR/SP/G            HT/PER
                 (UTC) (F)     (DEG/KT/KT) (MB)    (FT/S)
NORTHPORT PIER   1000    7     230/  7/ 16 1025.7F
SISTER BAY       0828    7     250/ 12/ 15   N/A
KEWAUNEE LAKESHO 0900    4     240/  4/  9 1026.9F
SHEBOYGAN LAKESH 1000    6     210/ 10/ 11 1030.3F
PORT WASHINGTON  0940    4     220/  5/  7 1030.1F
MILWAUKEE LAKESH 0900    6     230/ 10/ 12   N/A
KENOSHA   LAKESH 1000    2     210/  4/ 11 1030.5F
$$

TC  - TEMPERATURE IN CELSIUS
VSB - VISIBILITY IN STATUTE MILES
WCI - WIND CHILL INDEX
HX  - HEAT INDEX



USA.gov is the U.S. government's official web portal to all federal, state and local government web resources and services.